Weather History for Buckhannon, WV

Change the Weather History Date:

Thursday, June 13, 2013

  Actual Average (KEKN) Record (KEKN)
Temperature  
Mean Temperature 69 °F 66 °F  
Max Temperature 78 °F 78 °F 89 °F (1944)
Min Temperature 60 °F 54 °F 36 °F (1974)
Degree Days  
Heating Degree Days 0 2  
Month to date heating degree days 37  
Since 1 June heating degree days 37  
Since 1 July heating degree days 5834  
Cooling Degree Days 4 3  
Month to date cooling degree days 27  
Year to date cooling degree days 50  
Since 1 June cooling degree days 27  
Growing Degree Days 19 (Base 50)    
Moisture  
Dew Point 65 °F    
Average Humidity 95    
Maximum Humidity 100    
Minimum Humidity 65    
Precipitation  
Precipitation 2.19 in 0.13 in 1.49 in (1924)
Month to date precipitation 1.82  
Year to date precipitation 21.03  
Snow  
Snow 0.00 in - - ()
Month to date snowfall  
Since 1 September snowfall  
Snow Depth -    
Sea Level Pressure  
Sea Level Pressure 29.77 in    
Wind  
Wind Speed 6 mph (WSW)    
Max Wind Speed 40 mph    
Max Gust Speed 62 mph    
Visibility 8 miles    
Events Rain    
T = Trace of Precipitation, MM = Missing Value Source: NWS Daily Summary

Daily Weather History Graph

Daily Weather History Graph

Search for Another Location

Airport:

Trip Planner

Search our weather history database for the weather conditions in past years. The results will help you decide how hot, cold, wet, or windy it might be!

Date:

Astronomy

Jun. 13, 2013 Rise Set
Actual Time 5:54 AM EDT 8:47 PM EDT
Civil Twilight 5:22 AM EDT 9:19 PM EDT
Nautical Twilight 4:42 AM EDT 10:00 PM EDT
Astronomical Twilight 3:56 AM EDT 10:46 PM EDT
Moon 10:28 AM EDT (6/13) 11:55 PM EDT (6/13)
Length of Visible Light 15h 57m
Length of Day
14h 52m
Waxing Crescent, 21% of the Moon is Illuminated
Jun 13
Waxing Crescent
Jun 16
First Quarter
Jun 23
Full
Jun 30
Last Quarter
Jul 8
New

Hourly Weather History & Observations

Time (EDT) Temp. Dew Point Humidity Pressure Visibility Wind Dir Wind Speed Gust Speed Precip Events Conditions
12:15 AM 73.4 °F 69.8 °F 88% 29.87 in 10.0 mi Calm Calm - N/A   Mostly Cloudy
12:35 AM 69.8 °F 69.8 °F 100% 29.88 in 10.0 mi Calm Calm - N/A   Partly Cloudy
12:55 AM 69.8 °F 69.8 °F 100% 29.86 in 10.0 mi Calm Calm - N/A   Partly Cloudy
1:15 AM 69.8 °F 69.8 °F 100% 29.86 in 10.0 mi Calm Calm - N/A   Scattered Clouds
1:35 AM 69.8 °F 69.8 °F 100% 29.87 in 10.0 mi Calm Calm - N/A   Scattered Clouds
1:55 AM 69.8 °F 69.8 °F 100% 29.86 in 9.0 mi Calm Calm - N/A   Mostly Cloudy
2:15 AM 69.8 °F 69.8 °F 100% 29.85 in 8.0 mi Calm Calm - N/A   Partly Cloudy
2:35 AM 71.6 °F 71.6 °F 100% 29.83 in 10.0 mi SSW 3.5 mph - N/A   Clear
2:55 AM 73.4 °F 69.8 °F 88% 29.81 in 10.0 mi SSW 6.9 mph - N/A   Partly Cloudy
3:15 AM 75.2 °F 69.8 °F 83% 29.79 in 10.0 mi SSW 10.4 mph 17.3 mph N/A   Scattered Clouds
3:35 AM 75.2 °F 68.0 °F 78% 29.78 in 10.0 mi SSW 10.4 mph - N/A   Mostly Cloudy
3:55 AM 77.0 °F 68.0 °F 74% 29.77 in 10.0 mi SSW 13.8 mph 23.0 mph N/A   Mostly Cloudy
4:15 AM 77.0 °F 68.0 °F 74% 29.76 in 10.0 mi SW 15.0 mph 20.7 mph N/A   Scattered Clouds
4:35 AM 77.0 °F 68.0 °F 74% 29.75 in 10.0 mi SSW 11.5 mph 24.2 mph N/A   Scattered Clouds
4:55 AM 77.0 °F 66.2 °F 69% 29.74 in 10.0 mi SW 13.8 mph 27.6 mph N/A   Mostly Cloudy
5:15 AM 77.0 °F 66.2 °F 69% 29.74 in 10.0 mi SW 17.3 mph 23.0 mph N/A   Mostly Cloudy
5:35 AM 78.8 °F 66.2 °F 65% 29.72 in 10.0 mi SW 17.3 mph 24.2 mph N/A   Overcast
5:55 AM 75.2 °F 66.2 °F 73% 29.75 in 10.0 mi NW 19.6 mph 25.3 mph N/A   Drizzle
6:15 AM 66.2 °F 66.2 °F 100% 29.76 in 3.0 mi NNW 16.1 mph 29.9 mph 0.11 in Rain Rain
6:35 AM 64.4 °F 64.4 °F 100% 29.77 in 2.5 mi NNW 12.7 mph 20.7 mph 0.53 in Rain Heavy Rain
6:55 AM 64.4 °F 64.4 °F 100% 29.82 in 4.0 mi WNW 4.6 mph - 0.87 in Rain Rain
7:15 AM 64.4 °F 64.4 °F 100% 29.78 in 3.0 mi Calm Calm - 0.04 in Rain Light Rain
7:35 AM 64.4 °F 64.4 °F 100% 29.80 in 5.0 mi Calm Calm - 0.04 in Rain Light Rain
7:55 AM 64.4 °F 64.4 °F 100% 29.75 in 3.0 mi SSE 9.2 mph - 0.08 in   Overcast
8:15 AM 64.4 °F 64.4 °F 100% 29.75 in 5.0 mi South 9.2 mph - 0.01 in   Mostly Cloudy
8:35 AM 64.4 °F 64.4 °F 100% 29.73 in 4.0 mi South 8.1 mph - 0.02 in Rain Rain
8:55 AM 64.4 °F 64.4 °F 100% 29.71 in 10.0 mi South 9.2 mph 19.6 mph 0.02 in   Scattered Clouds
9:15 AM 64.4 °F 64.4 °F 100% 29.72 in 10.0 mi South 13.8 mph - N/A   Scattered Clouds
9:35 AM 64.4 °F 64.4 °F 100% 29.72 in 10.0 mi South 10.4 mph - N/A   Scattered Clouds
9:55 AM 64.4 °F 64.4 °F 100% 29.71 in 10.0 mi South 6.9 mph - N/A   Mostly Cloudy
10:15 AM 66.2 °F 64.4 °F 94% 29.70 in 10.0 mi South 9.2 mph - N/A   Mostly Cloudy
10:35 AM 66.2 °F 64.4 °F 94% 29.70 in 10.0 mi SSW 9.2 mph - N/A   Overcast
10:55 AM 68.0 °F 64.4 °F 88% 29.70 in 10.0 mi SSW 6.9 mph - N/A   Overcast
11:15 AM 66.2 °F 66.2 °F 100% 29.70 in 10.0 mi Calm Calm - N/A   Overcast
11:35 AM 66.2 °F 66.2 °F 100% 29.69 in 10.0 mi NE 3.5 mph - N/A   Overcast
11:55 AM 68.0 °F 68.0 °F 100% 29.67 in 10.0 mi Calm Calm - N/A   Overcast
12:15 PM 71.6 °F 69.8 °F 94% 29.67 in 10.0 mi SSW 8.1 mph - N/A   Mostly Cloudy
12:35 PM 71.6 °F 69.8 °F 94% 29.68 in 0.8 mi WSW 40.3 mph 62.1 mph 0.18 in Rain Heavy Rain
12:55 PM 64.4 °F 64.4 °F 100% 29.72 in 3.0 mi West 9.2 mph 31.1 mph 0.77 in Rain Heavy Rain
1:15 PM 64.4 °F 64.4 °F 100% 29.72 in 3.0 mi SSW 6.9 mph - 0.08 in Rain Light Rain
1:35 PM 62.6 °F 62.6 °F 100% 29.73 in 2.5 mi SSW 5.8 mph - 0.13 in Rain Light Rain
1:55 PM 62.6 °F 62.6 °F 100% 29.70 in 1.5 mi South 3.5 mph - 0.23 in Rain Heavy Rain
2:15 PM 62.6 °F 62.6 °F 100% 29.70 in 1.5 mi South 5.8 mph - 0.08 in Rain Rain
2:35 PM 64.4 °F 64.4 °F 100% 29.71 in 4.0 mi SW 6.9 mph - 0.12 in Rain Light Rain
2:55 PM 64.4 °F 64.4 °F 100% 29.70 in 7.0 mi SW 6.9 mph - 0.13 in Rain Light Rain
3:15 PM 64.4 °F 64.4 °F 100% 29.69 in 10.0 mi SW 6.9 mph - N/A   Overcast
3:35 PM 64.4 °F 64.4 °F 100% 29.70 in 10.0 mi SW 8.1 mph - N/A Rain Light Rain
3:55 PM 64.4 °F 64.4 °F 100% 29.71 in 1.8 mi SW 8.1 mph - 0.01 in Rain Rain
4:15 PM 64.4 °F 64.4 °F 100% 29.72 in 2.0 mi West 6.9 mph - 0.06 in   Light Drizzle
4:35 PM 64.4 °F 64.4 °F 100% 29.71 in 8.0 mi WSW 9.2 mph - 0.07 in   Overcast
4:55 PM 66.2 °F 66.2 °F 100% 29.71 in 10.0 mi West 9.2 mph - 0.07 in   Overcast
5:15 PM 64.4 °F 64.4 °F 100% 29.72 in 10.0 mi NW 11.5 mph 20.7 mph N/A   Overcast
5:35 PM 64.4 °F 64.4 °F 100% 29.74 in 10.0 mi NW 9.2 mph 19.6 mph N/A   Overcast
5:55 PM 62.6 °F 62.6 °F 100% 29.74 in 7.0 mi North 12.7 mph 25.3 mph N/A   Overcast
6:15 PM 62.6 °F 62.6 °F 100% 29.77 in 3.0 mi NNW 12.7 mph 21.9 mph 0.01 in   Overcast
6:35 PM 62.6 °F 62.6 °F 100% 29.78 in 5.0 mi NNW 12.7 mph 20.7 mph 0.01 in   Overcast
6:55 PM 62.6 °F 62.6 °F 100% 29.80 in 8.0 mi NW 8.1 mph - 0.01 in   Overcast
7:15 PM 62.6 °F 62.6 °F 100% 29.80 in 8.0 mi NNW 9.2 mph - N/A   Mostly Cloudy
7:35 PM 62.6 °F 62.6 °F 100% 29.81 in 9.0 mi NW 5.8 mph - N/A   Scattered Clouds
7:55 PM 62.6 °F 60.8 °F 94% 29.81 in 8.0 mi NW 5.8 mph - N/A   Partly Cloudy
8:15 PM 62.6 °F 60.8 °F 94% 29.82 in 10.0 mi West 5.8 mph - N/A   Clear
8:35 PM 62.6 °F 60.8 °F 94% 29.82 in 10.0 mi West 5.8 mph - N/A   Clear
8:55 PM 60.8 °F 60.8 °F 100% 29.82 in 9.0 mi SW 5.8 mph - N/A   Clear
9:15 PM 60.8 °F 60.8 °F 100% 29.83 in 9.0 mi WSW 5.8 mph - N/A   Clear
9:35 PM 60.8 °F 60.8 °F 100% 29.83 in 10.0 mi West 8.1 mph - N/A   Clear
9:55 PM 60.8 °F 60.8 °F 100% 29.84 in 10.0 mi West 6.9 mph - N/A   Clear
10:15 PM 60.8 °F 60.8 °F 100% 29.84 in 10.0 mi West 8.1 mph - N/A   Clear
10:35 PM 60.8 °F 59.0 °F 94% 29.84 in 10.0 mi WNW 6.9 mph - N/A   Clear
10:55 PM 60.8 °F 59.0 °F 94% 29.84 in 10.0 mi NW 4.6 mph - N/A   Clear
11:15 PM 60.8 °F 57.2 °F 88% 29.84 in 10.0 mi NW 5.8 mph - N/A   Clear
11:35 PM 60.8 °F 57.2 °F 88% 29.84 in 10.0 mi NW 4.6 mph - N/A   Clear
11:55 PM 60.8 °F 57.2 °F 88% 29.85 in 10.0 mi WNW 5.8 mph - N/A   Clear